{"data":{"norad_id":48467,"intl_designator":"2021-040AR","name":"STARLINK-2659","alt_names":[],"object_type":"PAYLOAD","status":"ACTIVE","operator":null,"country":"US","launch_date":"2021-05-09","launch_site_code":"AFETR","launch_vehicle":null,"mission":null,"orbit_class":"UNKNOWN","rcs_meters":null,"size_class":null,"mass_kg":null,"dimensions":null,"purposes":["comms"],"wikipedia_slug":null,"has_3d_model":false,"image_url":null,"decayed_at":null,"tle_current":{"epoch":"2026-09-20T00:13:43.329792Z","epoch_age_seconds":79722,"freshness":"FRESH","line1":"1 48467U 21040AR  26263.00952928  .00000447  00000+0  26169-4 0  9992","line2":"2 48467  53.1617   6.6671 0000872  82.7362 277.3739 15.31697339296287","mean_motion":15.31697339,"eccentricity":8.72e-5,"inclination_deg":53.1617,"raan_deg":6.6671,"arg_perigee_deg":82.7362,"mean_anomaly_deg":277.3739,"bstar":2.6169e-5,"rev_number":29628,"period_min":94.013351289109,"perigee_km":470.15070477398,"apogee_km":471.34515030535,"semimajor_km":6848.8849275397,"source":"CELESTRAK","updated_at":"2026-09-20T09:00:39.128618Z"}}}